Dates,Promoting Empathy via Storytelling
2021-05-28,2
2021-05-29,0
2021-05-30,0
2021-05-31,0
2021-06-01,0
2021-06-02,0
2021-06-03,0
2021-06-04,1
2021-06-05,0
2021-06-06,0
2021-06-07,1
2021-06-08,2
2021-06-09,0
2021-06-10,3
2021-06-11,0
2021-06-12,1
2021-06-13,1
2021-06-14,0
2021-06-15,1
2021-06-16,0
2021-06-17,0
2021-06-18,0
2021-06-19,0
2021-06-20,2
2021-06-21,0
2021-06-22,2
2021-06-23,3
2021-06-24,0
2021-06-25,1
2021-06-26,0
2021-06-27,0
2021-06-28,4
2021-06-29,0
2021-06-30,1
2021-07-01,2
2021-07-02,0
2021-07-03,1
2021-07-04,0
2021-07-05,0
2021-07-06,0
2021-07-07,1
2021-07-08,0
2021-07-09,2
2021-07-10,0
2021-07-11,0
2021-07-12,1
2021-07-13,1
2021-07-14,2
2021-07-15,1
2021-07-16,1
2021-07-17,1
2021-07-18,0
2021-07-19,0
2021-07-20,0
2021-07-21,0
2021-07-22,0
2021-07-23,0
2021-07-24,0
2021-07-25,2
2021-07-26,1
2021-07-27,0
2021-07-28,1
2021-07-29,0
2021-07-30,0
2021-07-31,0
2021-08-01,0
2021-08-02,0
2021-08-03,1
2021-08-04,0
2021-08-05,0
2021-08-06,0
2021-08-07,0
2021-08-08,0
2021-08-09,0
2021-08-10,0
2021-08-11,1
2021-08-12,1
2021-08-13,1
2021-08-14,0
2021-08-15,0
2021-08-16,2
2021-08-17,0
2021-08-18,0
2021-08-19,1
2021-08-20,1
2021-08-21,0
2021-08-22,0
2021-08-23,0
2021-08-24,1
2021-08-25,0
2021-08-26,0
2021-08-27,0
2021-08-28,1
2021-08-29,0
2021-08-30,0
2021-08-31,0
2021-09-01,3
2021-09-02,0
2021-09-03,0
2021-09-04,1
2021-09-05,0
2021-09-06,1
2021-09-07,0
2021-09-08,0
2021-09-09,0
2021-09-10,0
2021-09-11,0
2021-09-12,0
2021-09-13,2
2021-09-14,1
2021-09-15,0
2021-09-16,0
2021-09-17,0
2021-09-18,0
2021-09-19,1
2021-09-20,0
2021-09-21,0
2021-09-22,0
2021-09-23,1
2021-09-24,0
2021-09-25,0
2021-09-26,2
2021-09-27,0
2021-09-28,0
2021-09-29,0
2021-09-30,0
2021-10-01,1
2021-10-02,0
2021-10-03,0
2021-10-04,0
2021-10-05,0
2021-10-06,1
2021-10-07,1
2021-10-08,0
2021-10-09,1
2021-10-10,0
2021-10-11,1
2021-10-12,0
2021-10-13,0
2021-10-14,0
2021-10-15,0
2021-10-16,0
2021-10-17,1
2021-10-18,1
2021-10-19,0
2021-10-20,0
2021-10-21,1
2021-10-22,2
2021-10-23,0
2021-10-24,0
2021-10-25,2
2021-10-26,0
2021-10-27,1
2021-10-28,1
2021-10-29,0
2021-10-30,0
2021-10-31,0
2021-11-01,0
2021-11-02,2
2021-11-03,0
2021-11-04,2
2021-11-05,0
2021-11-06,1
2021-11-07,0
2021-11-08,0
2021-11-09,0
2021-11-10,3
2021-11-11,0
2021-11-12,1
2021-11-13,1
2021-11-14,0
2021-11-15,0
2021-11-16,1
2021-11-17,0
2021-11-18,1
2021-11-19,0
2021-11-20,2
2021-11-21,0
2021-11-22,1
2021-11-23,0
2021-11-24,1
2021-11-25,0
2021-11-26,2
2021-11-27,0
2021-11-28,1
2021-11-29,1
2021-11-30,0
2021-12-01,1
2021-12-02,0
2021-12-03,0
2021-12-04,0
2021-12-05,0
2021-12-06,1
2021-12-07,1
2021-12-08,1
2021-12-09,0
2021-12-10,0
2021-12-11,0
2021-12-12,0
2021-12-13,0
2021-12-14,1
2021-12-15,1
2021-12-16,0
2021-12-17,0
2021-12-18,0
2021-12-19,0
2021-12-20,0
2021-12-21,0
2021-12-22,0
2021-12-23,1
2021-12-24,0
2021-12-25,0
2021-12-26,1
2021-12-27,1
2021-12-28,0
2021-12-29,0
2021-12-30,0
2021-12-31,1
2022-01-01,0
2022-01-02,0
2022-01-03,0
2022-01-04,0
2022-01-05,0
2022-01-06,0
2022-01-07,2
2022-01-08,2
2022-01-09,0
2022-01-10,1
2022-01-11,1
2022-01-12,2
2022-01-13,2
2022-01-14,0
2022-01-15,0
2022-01-16,0
2022-01-17,1
2022-01-18,3
2022-01-19,0
2022-01-20,0
2022-01-21,0
2022-01-22,0
2022-01-23,1
2022-01-24,0
2022-01-25,1
2022-01-26,1
2022-01-27,0
2022-01-28,0
2022-01-29,1
2022-01-30,0
2022-01-31,1
2022-02-01,0
2022-02-02,2
2022-02-03,0
2022-02-04,0
2022-02-05,0
2022-02-06,1
2022-02-07,0
2022-02-08,0
2022-02-09,3
2022-02-10,2
2022-02-11,2
2022-02-12,0
2022-02-13,1
2022-02-14,0
2022-02-15,0
2022-02-16,0
2022-02-17,1
2022-02-18,2
2022-02-19,0
2022-02-20,0
2022-02-21,0
2022-02-22,1
2022-02-23,0
2022-02-24,1
2022-02-25,0
2022-02-26,1
2022-02-27,0
2022-02-28,1
2022-03-01,0
2022-03-02,1
2022-03-03,1
2022-03-04,0
2022-03-05,0
2022-03-06,1
2022-03-07,2
2022-03-08,2
2022-03-09,1
2022-03-10,2
2022-03-11,0
2022-03-12,1
2022-03-13,0
2022-03-14,1
2022-03-15,3
2022-03-16,3
2022-03-17,2
2022-03-18,0
2022-03-19,0
2022-03-20,0
2022-03-21,1
2022-03-22,0
2022-03-23,1
2022-03-24,0
2022-03-25,0
2022-03-26,1
2022-03-27,0
2022-03-28,0
2022-03-29,0
2022-03-30,1
2022-03-31,1
2022-04-01,2
2022-04-02,4
2022-04-03,0
2022-04-04,1
2022-04-05,1
2022-04-06,0
2022-04-07,0
2022-04-08,0
2022-04-09,2
2022-04-10,1
2022-04-11,6
2022-04-12,0
2022-04-13,3
2022-04-14,5
2022-04-15,0
2022-04-16,0
2022-04-17,1
2022-04-18,1
2022-04-19,1
2022-04-20,0
2022-04-21,1
2022-04-22,4
2022-04-23,3
2022-04-24,0
2022-04-25,0
2022-04-26,1
2022-04-27,2
2022-04-28,1
2022-04-29,0
2022-04-30,1
2022-05-01,0
2022-05-02,0
2022-05-03,3
2022-05-04,3
2022-05-05,0
2022-05-06,1
2022-05-07,1
2022-05-08,0
2022-05-09,1
2022-05-10,1
2022-05-11,2
2022-05-12,2
2022-05-13,2
2022-05-14,0
2022-05-15,1
2022-05-16,0
2022-05-17,1
2022-05-18,0
2022-05-19,3
2022-05-20,2
2022-05-21,6
2022-05-22,3
2022-05-23,3
2022-05-24,4
2022-05-25,3
2022-05-26,0
2022-05-27,1
2022-05-28,2
2022-05-29,0
2022-05-30,0
2022-05-31,1
2022-06-01,3
2022-06-02,3
2022-06-03,1
2022-06-04,0
2022-06-05,0
2022-06-06,0
2022-06-07,1
2022-06-08,3
2022-06-09,0
2022-06-10,1
2022-06-11,0
2022-06-12,0
2022-06-13,0
2022-06-14,2
2022-06-15,3
2022-06-16,1
2022-06-17,0
2022-06-18,3
2022-06-19,0
2022-06-20,0
2022-06-21,1
2022-06-22,1
2022-06-23,0
2022-06-24,0
2022-06-25,2
2022-06-26,0
2022-06-27,1
2022-06-28,0
2022-06-29,2
2022-06-30,0
2022-07-01,3
2022-07-02,0
2022-07-03,0
2022-07-04,1
2022-07-05,0
2022-07-06,0
2022-07-07,1
2022-07-08,0
2022-07-09,1
2022-07-10,0
2022-07-11,1
2022-07-12,1
2022-07-13,0
2022-07-14,0
2022-07-15,0
2022-07-16,0
2022-07-17,2
2022-07-18,2
2022-07-19,1
2022-07-20,0
2022-07-21,1
2022-07-22,0
2022-07-23,0
2022-07-24,3
2022-07-25,1
2022-07-26,2
2022-07-27,0
2022-07-28,2
2022-07-29,1
2022-07-30,1
2022-07-31,1
2022-08-01,3
2022-08-02,2
2022-08-03,1
2022-08-04,2
2022-08-05,1
2022-08-06,1
2022-08-07,1
2022-08-08,0
2022-08-09,2
2022-08-10,0
2022-08-11,1
2022-08-12,1
2022-08-13,2
2022-08-14,1
2022-08-15,0
2022-08-16,0
2022-08-17,3
2022-08-18,0
2022-08-19,2
2022-08-20,1
2022-08-21,1
2022-08-22,1
2022-08-23,2
2022-08-24,1
2022-08-25,1
2022-08-26,0
2022-08-27,0
2022-08-28,1
2022-08-29,1
2022-08-30,0
2022-08-31,2
2022-09-01,1
2022-09-02,3
2022-09-03,1
2022-09-04,0
2022-09-05,0
2022-09-06,2
2022-09-07,2
2022-09-08,2
2022-09-09,3
2022-09-10,0
2022-09-11,0
2022-09-12,0
2022-09-13,1
2022-09-14,0
2022-09-15,5
2022-09-16,0
2022-09-17,0
2022-09-18,6
2022-09-19,1
2022-09-20,1
2022-09-21,1
2022-09-22,0
2022-09-23,0
2022-09-24,1
2022-09-25,0
2022-09-26,0
2022-09-27,0
2022-09-28,0
2022-09-29,1
2022-09-30,1
2022-10-01,2
2022-10-02,1
2022-10-03,0
2022-10-04,7
2022-10-05,0
2022-10-06,1
2022-10-07,4
2022-10-08,0
2022-10-09,0
2022-10-10,0
2022-10-11,2
2022-10-12,3
2022-10-13,0
2022-10-14,2
2022-10-15,5
2022-10-16,3
2022-10-17,1
2022-10-18,3
2022-10-19,2
2022-10-20,1
2022-10-21,1
2022-10-22,0
2022-10-23,0
2022-10-24,3
2022-10-25,1
2022-10-26,0
2022-10-27,2
2022-10-28,3
2022-10-29,0
2022-10-30,1
2022-10-31,1
2022-11-01,3
2022-11-02,3
2022-11-03,4
2022-11-04,2
2022-11-05,4
2022-11-06,10
2022-11-07,1
2022-11-08,3
2022-11-09,2
2022-11-10,0
2022-11-11,0
2022-11-12,1
2022-11-13,0
2022-11-14,0
2022-11-15,1
2022-11-16,0
2022-11-17,0
2022-11-18,2
2022-11-19,2
2022-11-20,0
2022-11-21,1
2022-11-22,1
2022-11-23,1
2022-11-24,0
2022-11-25,2
2022-11-26,0
2022-11-27,1
2022-11-28,1
2022-11-29,0
2022-11-30,1
2022-12-01,2
2022-12-02,0
2022-12-03,0
2022-12-04,0
2022-12-05,0
2022-12-06,0
2022-12-07,2
2022-12-08,2
2022-12-09,1
2022-12-10,2
2022-12-11,0
2022-12-12,1
2022-12-13,3
2022-12-14,0
2022-12-15,0
2022-12-16,1
2022-12-17,0
2022-12-18,0
2022-12-19,0
2022-12-20,1
2022-12-21,0
2022-12-22,0
2022-12-23,0
2022-12-24,1
2022-12-25,0
2022-12-26,0
2022-12-27,2
2022-12-28,0
2022-12-29,0
2022-12-30,0
2022-12-31,0
2023-01-01,0
2023-01-02,1
2023-01-03,0
2023-01-04,0
2023-01-05,3
2023-01-06,1
2023-01-07,4
2023-01-08,0
2023-01-09,0
2023-01-10,0
2023-01-11,1
2023-01-12,2
2023-01-13,0
2023-01-14,0
2023-01-15,0
2023-01-16,1
2023-01-17,1
2023-01-18,2
2023-01-19,1
2023-01-20,0
2023-01-21,0
2023-01-22,0
2023-01-23,0
2023-01-24,1
2023-01-25,0
2023-01-26,0
2023-01-27,0
2023-01-28,0
2023-01-29,0
2023-01-30,1
2023-01-31,1
2023-02-01,0
2023-02-02,0
2023-02-03,0
2023-02-04,0
2023-02-05,0
2023-02-06,0
2023-02-07,0
2023-02-08,1
2023-02-09,0
2023-02-10,0
2023-02-11,0
2023-02-12,0
2023-02-13,0
2023-02-14,0
2023-02-15,1
2023-02-16,2
2023-02-17,0
2023-02-18,0
2023-02-19,0
2023-02-20,0
2023-02-21,0
2023-02-22,0
2023-02-23,1
2023-02-24,1
2023-02-25,0
2023-02-26,0
2023-02-27,0
2023-02-28,0
2023-03-01,0
2023-03-02,0
2023-03-03,1
2023-03-04,0
2023-03-05,0
2023-03-06,3
2023-03-07,9
2023-03-08,2
2023-03-09,3
2023-03-10,0
2023-03-11,1
2023-03-12,0
2023-03-13,2
2023-03-14,0
2023-03-15,0
2023-03-16,0
2023-03-17,0
2023-03-18,0
2023-03-19,0
2023-03-20,1
2023-03-21,1
2023-03-22,0
2023-03-23,0
2023-03-24,1
2023-03-25,0
2023-03-26,4
2023-03-27,3
2023-03-28,5
2023-03-29,1
2023-03-30,0
2023-03-31,0
2023-04-01,1
2023-04-02,0
2023-04-03,1
2023-04-04,0
2023-04-05,1
2023-04-06,0
2023-04-07,0
2023-04-08,0
2023-04-09,0
2023-04-10,0
2023-04-11,0
2023-04-12,0
2023-04-13,0
2023-04-14,0
2023-04-15,0
2023-04-16,0
2023-04-17,3
2023-04-18,0
2023-04-19,0
2023-04-20,0
2023-04-21,0
2023-04-22,2
2023-04-23,0
2023-04-24,0
2023-04-25,0
2023-04-26,0
2023-04-27,2
2023-04-28,0
2023-04-29,1
2023-04-30,0
2023-05-01,1
2023-05-02,0
2023-05-03,0
2023-05-04,0
2023-05-05,2
2023-05-06,0
2023-05-07,0
2023-05-08,1
2023-05-09,0
2023-05-10,0
2023-05-11,0
2023-05-12,0
2023-05-13,0
2023-05-14,1
2023-05-15,0
2023-05-16,1
2023-05-17,0
2023-05-18,0
2023-05-19,0
2023-05-20,2
2023-05-21,0
2023-05-22,1
2023-05-23,1
2023-05-24,1
2023-05-25,1
2023-05-26,0
2023-05-27,1
2023-05-28,0
2023-05-29,0
2023-05-30,1
2023-05-31,0
2023-06-01,0
2023-06-02,0
2023-06-03,0
2023-06-04,2
2023-06-05,1
2023-06-06,0
2023-06-07,0
2023-06-08,1
2023-06-09,1
2023-06-10,0
2023-06-11,0
2023-06-12,0
2023-06-13,0
2023-06-14,1
2023-06-15,0
2023-06-16,0
2023-06-17,0
2023-06-18,0
2023-06-19,0
2023-06-20,0
2023-06-21,0
2023-06-22,0
2023-06-23,1
2023-06-24,0
2023-06-25,0
2023-06-26,0
2023-06-27,1
2023-06-28,1
2023-06-29,0
2023-06-30,0
2023-07-01,0
2023-07-02,1
2023-07-03,3
2023-07-04,0
2023-07-05,0
2023-07-06,1
2023-07-07,0
2023-07-08,2
2023-07-09,1
2023-07-10,1
2023-07-11,5
2023-07-12,3
2023-07-13,1
2023-07-14,0
2023-07-15,1
2023-07-16,2
2023-07-17,4
2023-07-18,0
2023-07-19,0
2023-07-20,1
2023-07-21,1
2023-07-22,1
2023-07-23,2
2023-07-24,0
2023-07-25,1
2023-07-26,2
2023-07-27,3
2023-07-28,4
2023-07-29,1
2023-07-30,0
2023-07-31,0
2023-08-01,1
2023-08-02,0
2023-08-03,2
2023-08-04,1
2023-08-05,1
2023-08-06,0
2023-08-07,1
2023-08-08,0
2023-08-09,5
2023-08-10,0
2023-08-11,2
2023-08-12,0
2023-08-13,0
2023-08-14,2
2023-08-15,0
2023-08-16,2
2023-08-17,2
2023-08-18,1
2023-08-19,2
2023-08-20,0
2023-08-21,0
2023-08-22,2
2023-08-23,1
2023-08-24,6
2023-08-25,0
2023-08-26,1
2023-08-27,2
2023-08-28,4
2023-08-29,7
2023-08-30,10
2023-08-31,3
2023-09-01,10
2023-09-02,9
2023-09-03,6
2023-09-04,9
2023-09-05,6
2023-09-06,12
2023-09-07,15
2023-09-08,6
2023-09-09,1
2023-09-10,3
2023-09-11,1
2023-09-12,4
2023-09-13,0
2023-09-14,5
2023-09-15,3
2023-09-16,2
2023-09-17,2
2023-09-18,4
2023-09-19,4
2023-09-20,1
2023-09-21,4
2023-09-22,5
2023-09-23,1
2023-09-24,0
2023-09-25,3
2023-09-26,3
2023-09-27,0
2023-09-28,2
2023-09-29,5
2023-09-30,2
2023-10-01,3
2023-10-02,1
2023-10-03,2
2023-10-04,8
2023-10-05,6
2023-10-06,4
2023-10-07,3
2023-10-08,5
2023-10-09,5
2023-10-10,8
2023-10-11,2
2023-10-12,7
2023-10-13,4
2023-10-14,8
2023-10-15,2
2023-10-16,1
2023-10-17,2
2023-10-18,6
2023-10-19,2
2023-10-20,9
2023-10-21,1
2023-10-22,5
2023-10-23,5
2023-10-24,10
2023-10-25,2
2023-10-26,1
2023-10-27,4
2023-10-28,1
2023-10-29,2
2023-10-30,7
2023-10-31,11
2023-11-01,10
2023-11-02,7
2023-11-03,3
2023-11-04,5
2023-11-05,10
2023-11-06,7
2023-11-07,8
2023-11-08,11
2023-11-09,3
2023-11-10,6
2023-11-11,4
2023-11-12,2
2023-11-13,5
2023-11-14,5
2023-11-15,4
2023-11-16,4
2023-11-17,10
2023-11-18,7
2023-11-19,2
2023-11-20,3
2023-11-21,4
2023-11-22,12
2023-11-23,4
2023-11-24,5
2023-11-25,0
2023-11-26,2
2023-11-27,5
2023-11-28,1
2023-11-29,1
2023-11-30,4
2023-12-01,3
2023-12-02,6
2023-12-03,1
2023-12-04,12
2023-12-05,8
2023-12-06,5
2023-12-07,19
2023-12-08,8
2023-12-09,5
2023-12-10,4
2023-12-11,2
2023-12-12,14
2023-12-13,4
2023-12-14,14
2023-12-15,6
2023-12-16,3
2023-12-17,4
2023-12-18,16
2023-12-19,11
2023-12-20,2
2023-12-21,4
2023-12-22,2
2023-12-23,2
2023-12-24,1
2023-12-25,1
2023-12-26,1
2023-12-27,1
2023-12-28,11
2023-12-29,8
2023-12-30,2
2023-12-31,2
2024-01-01,3
2024-01-02,12
2024-01-03,11
2024-01-04,7
2024-01-05,7
2024-01-06,1
2024-01-07,3
2024-01-08,11
2024-01-09,14
2024-01-10,9
2024-01-11,4
2024-01-12,4
2024-01-13,10
2024-01-14,7
2024-01-15,13
2024-01-16,10
2024-01-17,22
2024-01-18,13
2024-01-19,10
2024-01-20,8
2024-01-21,8
2024-01-22,20
2024-01-23,6
2024-01-24,3
2024-01-25,12
2024-01-26,1
2024-01-27,5
2024-01-28,3
2024-01-29,6
2024-01-30,10
2024-01-31,9
2024-02-01,9
2024-02-02,2
2024-02-03,4
2024-02-04,7
2024-02-05,15
2024-02-06,17
2024-02-07,7
2024-02-08,4
2024-02-09,4
2024-02-10,9
2024-02-11,6
2024-02-12,9
2024-02-13,10
2024-02-14,7
2024-02-15,0
2024-02-16,5
2024-02-17,3
2024-02-18,9
2024-02-19,6
2024-02-20,9
2024-02-21,7
2024-02-22,6
2024-02-23,10
2024-02-24,3
2024-02-25,4
2024-02-26,18
2024-02-27,14
2024-02-28,23
2024-02-29,5
2024-03-01,6
2024-03-02,6
2024-03-03,9
2024-03-04,4
2024-03-05,18
2024-03-06,17
2024-03-07,19
2024-03-08,13
2024-03-09,6
2024-03-10,9
2024-03-11,11
2024-03-12,18
2024-03-13,13
2024-03-14,13
2024-03-15,14
2024-03-16,9
2024-03-17,9
2024-03-18,11
2024-03-19,9
2024-03-20,16
2024-03-21,19
2024-03-22,8
2024-03-23,9
2024-03-24,7
2024-03-25,11
2024-03-26,12
2024-03-27,21
2024-03-28,8
2024-03-29,3
